Air Resources Laboratory banner image
Air Resources Laboratory web site National Oceanic and Atmospheric Administration (NOAA)

ne roundup


Office: OAX

ASUS43 KOAX 171302
RWRNE

WEATHER ROUNDUP FOR NEBRASKA
NATIONAL WEATHER SERVICE OMAHA NE
800 AM CDT TUE JUL 17 2018

NOTES: SATELLITE DATA IS BEING USED TO AUGMENT CLOUD COVER ABOVE
       12000 FEET.
       "FAIR" INDICATES FEW OR NO CLOUDS BELOW 12,000 FEET WITH NO
       SIGNIFICANT WEATHER AND/OR OBSTRUCTIONS TO VISIBILITY.

  * THESE STATIONS DO NOT REPORT WEATHER SUCH AS RAIN...SNOW OR FOG.

NEZ001>004-019>022-054>056-171400-
NEBRASKA PANHANDLE

CITY           SKY/WX    TMP DP  RH WIND       PRES   REMARKS
SCOTTSBLUFF    SUNNY     62  62 100 S3        30.22S
ALLIANCE       SUNNY     61  61 100 SW8       30.22S
CHADRON        SUNNY     64  61  90 S6        30.16F
KIMBALL        CLOUDY    60  58  94 CALM      30.28S
SIDNEY         PTSUNNY   63  61  93 W3        30.26R
$$

NEZ057>060-069>072-079>082-171400-
SOUTHWEST NEBRASKA

CITY           SKY/WX    TMP DP  RH WIND       PRES   REMARKS
NORTH PLATTE   SUNNY     70  65  84 CALM      30.10F
IMPERIAL       CLOUDY    65  63  93 S5        30.15R
LEXINGTON      CLOUDY    67  65  93 CALM      30.06F
MC COOK        PTSUNNY   67  65  93 MISG      30.11R
OGALLALA       SUNNY     66  64  92 NW3       30.17R
$$

NEZ005>010-023>029-035>040-094-171400-
NORTH CENTRAL NEBRASKA

CITY           SKY/WX    TMP DP  RH WIND       PRES   REMARKS
VALENTINE      SUNNY     67  64  90 CALM      30.14S
AINSWORTH      SUNNY     68  64  88 CALM      30.15R
BROKEN BOW     PTSUNNY   67  62  84 NE9       30.12R
O'NEILL        CLOUDY    69  66  90 E7        30.13S
ORD            CLOUDY    66  64  93 E6        30.12R
THEDFORD       SUNNY     66  63  90 NW3       30.16R
$$

NEZ041-046>049-061>064-073>077-083>087-171400-
SOUTH CENTRAL NEBRASKA

CITY           SKY/WX    TMP DP  RH WIND       PRES   REMARKS
GRAND ISLAND   CLOUDY    68  66  93 N10       30.09R
AURORA         LGT RAIN  70  70 100 NE3       30.08R
HASTINGS       LGT RAIN  71  70  96 SE5       30.04F FOG
HEBRON         RAIN      73  72  96 CALM      30.07R
HOLDREGE       CLOUDY    67  67  98 NW3       30.07R
KEARNEY *      CLOUDY    69  67  93 CALM      30.09R
YORK           LGT RAIN  72  70  94 E7        30.08R
$$

NEZ011>018-030>034-042>045-171400-
NORTHEAST NEBRASKA

CITY           SKY/WX    TMP DP  RH WIND       PRES   REMARKS
NORFOLK        LGT RAIN  69  66  90 SE10      30.09F
ALBION         LGT RAIN  68  65  92 NW5       30.13R
BLAIR          CLOUDY    70  65  82 E3        30.09R
COLUMBUS *     CLOUDY    70  68  93 N5        30.10R FOG
FREMONT        CLOUDY    73  63  69 E3        30.09R
TEKAMAH        CLOUDY    70  65  84 SE3       30.09R
$$

NEZ050>053-065>068-078-088>093-171400-
SOUTHEAST NEBRASKA

CITY           SKY/WX    TMP DP  RH WIND       PRES   REMARKS
LINCOLN        LGT RAIN  74  63  68 SE7       30.06F
OMAHA EPPLEY   CLOUDY    73  62  68 SE8       30.08R
BEATRICE       CLOUDY    73  69  86 E5        30.07R
FALLS CITY     CLOUDY    71  65  81 E5        30.06S
NEBRASKA CITY  CLOUDY    71  68  91 E3        30.08S
PLATTSMOUTH    CLOUDY    72  65  78 E5        30.08F
$$

NEZ044-045-051>053-067-171400-
OMAHA AREA

CITY           SKY/WX    TMP DP  RH WIND       PRES   REMARKS
EPPLEY FIELD   CLOUDY    73  62  68 SE8       30.08R
BLAIR          CLOUDY    70  65  82 E3        30.09R
FREMONT        CLOUDY    73  63  69 E3        30.09R
MILLARD        CLOUDY    74  65  74 SE5       30.08F
OFFUTT AFB     CLOUDY    72  64  76 SE5       30.08R
PLATTSMOUTH    CLOUDY    72  65  78 E5        30.08F
WAHOO          FAIR      70  66  89 E3        30.08F
$$


ASUS43 KOAX 171303
RWRNE

WEATHER ROUNDUP FOR NEBRASKA
NATIONAL WEATHER SERVICE OMAHA NE
800 AM CDT TUE JUL 17 2018

NOTES: SATELLITE DATA IS BEING USED TO AUGMENT CLOUD COVER ABOVE
       12000 FEET.
       "FAIR" INDICATES FEW OR NO CLOUDS BELOW 12,000 FEET WITH NO
       SIGNIFICANT WEATHER AND/OR OBSTRUCTIONS TO VISIBILITY.


NEZ001>004-019>022-054>056-171400-
NEBRASKA PANHANDLE

CITY           SKY/WX    TMP DP  RH WIND       PRES   REMARKS
SCOTTSBLUFF    SUNNY     62  62 100 S3        30.22S
ALLIANCE       SUNNY     61  61 100 SW8       30.22S
CHADRON        SUNNY     64  61  90 S6        30.16F
GORDON         FAIR      63  60  90 CALM      30.19S
KIMBALL        CLOUDY    60  58  94 CALM      30.28S
SIDNEY         PTSUNNY   63  61  93 W3        30.26R
$$

NEZ057>060-069>072-079>082-171400-
SOUTHWEST NEBRASKA

CITY           SKY/WX    TMP DP  RH WIND       PRES   REMARKS
NORTH PLATTE   SUNNY     70  65  84 CALM      30.10F
IMPERIAL       CLOUDY    65  63  93 S5        30.15R
LEXINGTON      CLOUDY    67  65  93 CALM      30.06F
MCCOOK         PTSUNNY   67  65  93 MISG      30.11R
OGALLALA       SUNNY     66  64  92 NW3       30.17R
$$

NEZ005>010-023>029-035>040-094-171400-
NORTH CENTRAL NEBRASKA

CITY           SKY/WX    TMP DP  RH WIND       PRES   REMARKS
VALENTINE      SUNNY     67  64  90 CALM      30.14S
AINSWORTH      SUNNY     68  64  88 CALM      30.15R
BROKEN BOW     PTSUNNY   67  62  84 NE9       30.12R
O'NEILL        CLOUDY    69  66  90 E7        30.13S
ORD            CLOUDY    66  64  93 E6        30.12R
THEDFORD       SUNNY     66  63  90 NW3       30.16R
$$

NEZ041-046>049-061>064-073>077-083>087-171400-
SOUTH CENTRAL NEBRASKA

CITY           SKY/WX    TMP DP  RH WIND       PRES   REMARKS
GRAND ISLAND   CLOUDY    68  66  93 N10       30.09R
AURORA         LGT RAIN  70  70 100 NE3       30.08R
HASTINGS       LGT RAIN  71  70  96 SE5       30.04F FOG
HEBRON         RAIN      73  72  96 CALM      30.07R
HOLDREGE       CLOUDY    67  67  98 NW3       30.07R
KEARNEY        CLOUDY    69  67  93 CALM      30.09R
YORK           LGT RAIN  72  70  94 E10       30.07S
$$

NEZ011>018-030>034-042>045-171400-
NORTHEAST NEBRASKA

CITY           SKY/WX    TMP DP  RH WIND       PRES   REMARKS
NORFOLK        LGT RAIN  69  66  90 SE10      30.09F
ALBION         LGT RAIN  68  65  92 NW5       30.13R
BLAIR          CLOUDY    70  65  82 E3        30.09R
COLUMBUS       CLOUDY    70  68  93 N5        30.10R FOG
FREMONT        CLOUDY    73  63  69 E3        30.09R
TEKAMAH        CLOUDY    70  65  84 SE3       30.09R
WAYNE          CLOUDY    69  67  96 S3        30.12R
$$

NEZ050>053-065>068-078-088>093-171400-
SOUTHEAST NEBRASKA

CITY           SKY/WX    TMP DP  RH WIND       PRES   REMARKS
LINCOLN        LGT RAIN  74  63  68 SE7       30.06F
OMAHA EPPLEY   CLOUDY    73  62  68 SE8       30.08R
BEATRICE       CLOUDY    73  69  86 E5        30.07R
FALLS CITY     CLOUDY    71  65  81 E5        30.06S
NEBRASKA CITY  CLOUDY    71  68  91 E3        30.08S
PLATTSMOUTH    CLOUDY    72  65  78 E5        30.08F
$$

NEZ044-045-051>053-067-171400-
OMAHA AREA

CITY           SKY/WX    TMP DP  RH WIND       PRES   REMARKS
OMAHA EPPLEY   CLOUDY    73  62  68 SE8       30.08R
BLAIR          CLOUDY    70  65  82 E3        30.09R
FREMONT        CLOUDY    73  63  69 E3        30.09R
MILLARD        CLOUDY    74  65  74 SE5       30.08F
OFFUTT AFB     CLOUDY    72  64  76 SE5       30.08R
PLATTSMOUTH    CLOUDY    72  65  78 E5        30.08F
WAHOO          FAIR      70  66  89 E3        30.08F
$$


ASUS43 KOAX 171310
RWRNE

WEATHER ROUNDUP FOR NEBRASKA
NATIONAL WEATHER SERVICE OMAHA NE
800 AM CDT TUE JUL 17 2018

NOTES: SATELLITE DATA IS BEING USED TO AUGMENT CLOUD COVER ABOVE
       12000 FEET.
       "FAIR" INDICATES FEW OR NO CLOUDS BELOW 12,000 FEET WITH NO
       SIGNIFICANT WEATHER AND/OR OBSTRUCTIONS TO VISIBILITY.


NEZ001>004-019>022-054>056-171400-
NEBRASKA PANHANDLE

CITY           SKY/WX    TMP DP  RH WIND       PRES   REMARKS
SCOTTSBLUFF    SUNNY     62  62 100 S3        30.22S
ALLIANCE       SUNNY     61  61 100 SW8       30.22S
CHADRON        SUNNY     64  61  90 S6        30.16F
GORDON         FAIR      63  60  90 CALM      30.19S
KIMBALL        CLOUDY    60  58  94 CALM      30.28S
SIDNEY         PTSUNNY   63  61  93 W3        30.26R
$$

NEZ057>060-069>072-079>082-171400-
SOUTHWEST NEBRASKA

CITY           SKY/WX    TMP DP  RH WIND       PRES   REMARKS
NORTH PLATTE   SUNNY     70  65  84 CALM      30.10F
IMPERIAL       CLOUDY    65  63  93 S5        30.15R
LEXINGTON      CLOUDY    67  65  93 CALM      30.06F
MCCOOK         PTSUNNY   67  65  93 MISG      30.11R
OGALLALA       SUNNY     66  64  92 NW3       30.17R
$$

NEZ005>010-023>029-035>040-094-171400-
NORTH CENTRAL NEBRASKA

CITY           SKY/WX    TMP DP  RH WIND       PRES   REMARKS
VALENTINE      SUNNY     67  64  90 CALM      30.14S
AINSWORTH      SUNNY     68  64  88 CALM      30.15R
BROKEN BOW     PTSUNNY   67  62  84 NE9       30.12R
O'NEILL        CLOUDY    69  66  90 E7        30.13S
ORD            CLOUDY    66  64  93 E6        30.12R
THEDFORD       SUNNY     66  63  90 NW3       30.16R
$$

NEZ041-046>049-061>064-073>077-083>087-171400-
SOUTH CENTRAL NEBRASKA

CITY           SKY/WX    TMP DP  RH WIND       PRES   REMARKS
GRAND ISLAND   CLOUDY    68  66  93 N10       30.09R
AURORA         LGT RAIN  70  70 100 NE3       30.08R
HASTINGS       LGT RAIN  71  70  96 SE5       30.04F FOG
HEBRON         RAIN      73  72  96 CALM      30.07R
HOLDREGE       CLOUDY    67  67  98 NW3       30.07R
KEARNEY        CLOUDY    69  67  93 CALM      30.09R
YORK           LGT RAIN  72  70  94 E10       30.07S
$$

NEZ011>018-030>034-042>045-171400-
NORTHEAST NEBRASKA

CITY           SKY/WX    TMP DP  RH WIND       PRES   REMARKS
NORFOLK        LGT RAIN  69  66  90 SE10      30.09F
ALBION         LGT RAIN  68  65  92 NW5       30.13R
BLAIR          CLOUDY    70  65  82 E3        30.09R
COLUMBUS       CLOUDY    70  68  94 N9G16     30.10R FOG
FREMONT        CLOUDY    73  63  69 E3        30.09R
TEKAMAH        CLOUDY    70  65  84 SE3       30.09R
WAYNE          CLOUDY    69  67  96 S3        30.12R
$$

NEZ050>053-065>068-078-088>093-171400-
SOUTHEAST NEBRASKA

CITY           SKY/WX    TMP DP  RH WIND       PRES   REMARKS
LINCOLN        LGT RAIN  74  63  68 SE7       30.06F
OMAHA EPPLEY   CLOUDY    73  62  68 SE8       30.08R
BEATRICE       CLOUDY    73  69  86 E5        30.07R
FALLS CITY     CLOUDY    71  65  81 E5        30.06S
NEBRASKA CITY  CLOUDY    71  68  91 E3        30.08S
PLATTSMOUTH    CLOUDY    72  65  78 E5        30.08F
$$

NEZ044-045-051>053-067-171400-
OMAHA AREA

CITY           SKY/WX    TMP DP  RH WIND       PRES   REMARKS
OMAHA EPPLEY   CLOUDY    73  62  68 SE8       30.08R
BLAIR          CLOUDY    70  65  82 E3        30.09R
FREMONT        CLOUDY    73  63  69 E3        30.09R
MILLARD        CLOUDY    74  65  74 SE5       30.08F
OFFUTT AFB     CLOUDY    72  64  76 SE5       30.08R
PLATTSMOUTH    CLOUDY    72  65  78 E5        30.08F
WAHOO          FAIR      70  66  89 E3        30.08F
$$




Office: FSD ASUS43 KFSD 171302 RWRSD WEATHER ROUNDUP FOR SOUTH DAKOTA NATIONAL WEATHER SERVICE SIOUX FALLS SD 800 AM CDT TUE JUL 17 2018 NOTE: "FAIR" INDICATES FEW OR NO CLOUDS BELOW 12,000 FEET WITH NO SIGNIFICANT WEATHER AND/OR OBSTRUCTIONS TO VISIBILITY. SDZ001>005-009-010-012>017-171400- NORTHWEST AND NORTH CENTRAL SOUTH DAKOTA CITY SKY/WX TMP DP RH WIND PRES REMARKS BUFFALO N/A 68 56 65 E5 30.08R FAITH N/A 68 64 87 S10 30.13R MOBRIDGE SUNNY 65 60 84 E9 30.11R $$ SDZ012>016-024>037-041>051-057-063-072>074-171400- SOUTHWEST AND SOUTH CENTRAL SOUTH DAKOTA CITY SKY/WX TMP DP RH WIND PRES REMARKS RAPID CTY ARPT MOSUNNY 67 63 87 SE8 30.15R PIERRE SUNNY 69 63 81 NE3 30.09R CUSTER SUNNY 62 57 83 CALM 30.28R ELLSWORTH AFB MOSUNNY 66 66 100 CALM 30.15R PHILIP SUNNY 67 63 87 CALM 30.11S PINE RIDGE SUNNY 65 62 90 S6 30.17R SPEARFISH FAIR 64 63 94 CALM 30.19S WINNER FAIR 69 64 84 SW5 30.10F $$ SDZ004>011-016>023-039-040-171400- NORTHEAST SOUTH DAKOTA CITY SKY/WX TMP DP RH WIND PRES REMARKS ABERDEEN SUNNY 65 62 90 NE5 30.14R WATERTOWN SUNNY 66 55 67 E7 30.14S BROOKINGS MOSUNNY 65 57 75 E9 30.14R SISSETON N/A 65 60 84 CALM 30.15S $$ SDZ017-020-022-023-036>040-048>070-171400- SOUTHEAST SOUTH DAKOTA CITY SKY/WX TMP DP RH WIND PRES REMARKS SIOUX FALLS PTSUNNY 67 62 84 CALM 30.12S HURON SUNNY 65 58 78 NE5 30.11S CHAMBERLAIN SUNNY 71 70 98 CALM 30.10S MITCHELL MOSUNNY 69 62 78 E5 30.10R YANKTON PTSUNNY 70 65 84 E5 30.11R $$ ABBREVIATIONS USED IN REMARKS TC - TEMPERATURE IN CELSIUS WCI - WIND CHILL INDEX HX - HEAT INDEX VSB - VISIBILITY ASUS43 KFSD 171302 RWRFSD WEATHER ROUNDUP FOR SE SOUTH DAKOTA/SW MINNESOTA/NW IOWA NATIONAL WEATHER SERVICE SIOUX FALLS SD 800 AM CDT TUE JUL 17 2018 NOTE: "FAIR" INDICATES FEW OR NO CLOUDS BELOW 12,000 FEET WITH NO SIGNIFICANT WEATHER AND OR OBSTRUCTIONS TO VISIBILITY. SDZ038>040-050-052>070-171400- SOUTHEAST SOUTH DAKOTA CITY SKY/WX TMP DP RH WIND PRES REMARKS BROOKINGS MOSUNNY 65 57 75 E9 30.14R CHAMBERLAIN SUNNY 71 70 98 CALM 30.10S HURON SUNNY 65 58 78 NE5 30.11S MADISON FAIR 63 63 100 NE6 30.13S MITCHELL MOSUNNY 69 62 78 E5 30.10R SIOUX FALLS PTSUNNY 67 62 84 CALM 30.12S WINNER FAIR 69 64 84 SW5 30.10F YANKTON PTSUNNY 70 65 84 E5 30.11R $$ MNZ071-072-080-081-089-090-097-098-171400- SOUTHWEST MINNESOTA CITY SKY/WX TMP DP RH WIND PRES REMARKS FAIRMONT MOSUNNY 66 60 81 E8 30.13R JACKSON CLOUDY 64 61 88 NE5 30.14R LUVERNE PTSUNNY 63 57 82 CALM 30.13S MARSHALL SUNNY 63 59 87 CALM 30.15S MONTEVIDEO SUNNY 68 59 73 CALM 30.15R PIPESTONE MOSUNNY 66 61 82 E5 30.13S REDWOOD FALLS SUNNY 66 58 75 NE7 30.14R TRACY SUNNY 64 60 85 CALM 30.14S WINDOM MOSUNNY 66 64 94 NE7 30.13S WORTHINGTON MOSUNNY 66 61 84 NE5 30.14S $$ IAZ001>003-012>014-020>022-031-032-NEZ013-014-SDZ071-171400- NORTHWEST IOWA CITY SKY/WX TMP DP RH WIND PRES REMARKS CHEROKEE CLOUDY 66 65 96 CALM 30.11S DENISON CLOUDY 66 64 94 CALM 30.12R ESTHERVILLE CLOUDY 67 62 84 NE5 30.12R ORANGE CITY CLOUDY 72 61 68 CALM 30.12R SHELDON CLOUDY 66 66 100 CALM 30.11R SIOUX CITY CLOUDY 68 64 87 CALM 30.10R SPENCER PTSUNNY 69 63 81 NE5 30.12R STORM LAKE CLOUDY 68 61 77 CALM 30.12S $$ ABBREVIATIONS USED IN REMARKS TC - TEMPERATURE IN CELSIUS WCI - WIND CHILL INDEX HX - HEAT INDEX VSB - VISIBILITY ASUS43 KFSD 171310 RWRFSD WEATHER ROUNDUP FOR SE SOUTH DAKOTA/SW MINNESOTA/NW IOWA NATIONAL WEATHER SERVICE SIOUX FALLS SD 800 AM CDT TUE JUL 17 2018 NOTE: "FAIR" INDICATES FEW OR NO CLOUDS BELOW 12,000 FEET WITH NO SIGNIFICANT WEATHER AND OR OBSTRUCTIONS TO VISIBILITY. SDZ038>040-050-052>070-171400- SOUTHEAST SOUTH DAKOTA CITY SKY/WX TMP DP RH WIND PRES REMARKS BROOKINGS MOSUNNY 65 57 75 E9 30.14R CHAMBERLAIN SUNNY 71 70 98 CALM 30.10S HURON SUNNY 65 58 78 NE5 30.11S MADISON FAIR 63 63 100 NE6 30.13S MITCHELL MOSUNNY 69 62 78 E5 30.10R SIOUX FALLS PTSUNNY 67 62 84 CALM 30.12S WINNER FAIR 69 64 84 SW5 30.10F YANKTON PTSUNNY 70 65 84 E5 30.11R $$ MNZ071-072-080-081-089-090-097-098-171400- SOUTHWEST MINNESOTA CITY SKY/WX TMP DP RH WIND PRES REMARKS FAIRMONT MOSUNNY 66 60 81 E8 30.13R JACKSON CLOUDY 64 61 88 NE5 30.14R LUVERNE PTSUNNY 63 57 82 CALM 30.13S MARSHALL MOSUNNY 64 61 88 CALM 30.15S MONTEVIDEO SUNNY 68 59 73 CALM 30.15R PIPESTONE MOSUNNY 66 61 82 E5 30.13S REDWOOD FALLS SUNNY 66 58 75 NE7 30.14R TRACY SUNNY 64 60 85 CALM 30.14S WINDOM MOSUNNY 66 64 94 NE7 30.13S WORTHINGTON MOSUNNY 66 61 84 NE5 30.14S $$ IAZ001>003-012>014-020>022-031-032-NEZ013-014-SDZ071-171400- NORTHWEST IOWA CITY SKY/WX TMP DP RH WIND PRES REMARKS CHEROKEE CLOUDY 66 65 96 CALM 30.11S DENISON CLOUDY 66 64 94 CALM 30.12R ESTHERVILLE CLOUDY 67 62 84 NE5 30.12R ORANGE CITY CLOUDY 72 61 68 CALM 30.12R SHELDON CLOUDY 66 66 100 CALM 30.11R SIOUX CITY CLOUDY 68 64 87 CALM 30.10R SPENCER PTSUNNY 69 63 81 NE5 30.12R STORM LAKE CLOUDY 68 61 77 CALM 30.12S $$ ABBREVIATIONS USED IN REMARKS TC - TEMPERATURE IN CELSIUS WCI - WIND CHILL INDEX HX - HEAT INDEX VSB - VISIBILITY ASUS43 KFSD 171310 RWRSD WEATHER ROUNDUP FOR SOUTH DAKOTA NATIONAL WEATHER SERVICE SIOUX FALLS SD 800 AM CDT TUE JUL 17 2018 NOTE: "FAIR" INDICATES FEW OR NO CLOUDS BELOW 12,000 FEET WITH NO SIGNIFICANT WEATHER AND/OR OBSTRUCTIONS TO VISIBILITY. SDZ001>005-009-010-012>017-171400- NORTHWEST AND NORTH CENTRAL SOUTH DAKOTA CITY SKY/WX TMP DP RH WIND PRES REMARKS BUFFALO N/A 68 56 65 E5 30.08R FAITH N/A 68 64 87 S10 30.13R MOBRIDGE SUNNY 65 60 84 E9 30.11R $$ SDZ012>016-024>037-041>051-057-063-072>074-171400- SOUTHWEST AND SOUTH CENTRAL SOUTH DAKOTA CITY SKY/WX TMP DP RH WIND PRES REMARKS RAPID CTY ARPT MOSUNNY 67 63 87 SE8 30.15R PIERRE SUNNY 69 63 81 NE3 30.09R CUSTER SUNNY 62 57 83 CALM 30.28R ELLSWORTH AFB MOSUNNY 66 66 100 CALM 30.15R PHILIP SUNNY 67 63 87 CALM 30.11S PINE RIDGE SUNNY 65 62 90 S6 30.17R SPEARFISH FAIR 64 63 94 CALM 30.19S WINNER FAIR 69 64 84 SW5 30.10F $$ SDZ004>011-016>023-039-040-171400- NORTHEAST SOUTH DAKOTA CITY SKY/WX TMP DP RH WIND PRES REMARKS ABERDEEN SUNNY 65 62 90 NE5 30.14R WATERTOWN SUNNY 66 55 67 E7 30.14S BROOKINGS MOSUNNY 65 57 75 E9 30.14R SISSETON N/A 65 60 84 CALM 30.15S $$ SDZ017-020-022-023-036>040-048>070-171400- SOUTHEAST SOUTH DAKOTA CITY SKY/WX TMP DP RH WIND PRES REMARKS SIOUX FALLS PTSUNNY 67 62 84 CALM 30.12S HURON SUNNY 65 58 78 NE5 30.11S CHAMBERLAIN SUNNY 71 70 98 CALM 30.10S MITCHELL MOSUNNY 69 62 78 E5 30.10R YANKTON PTSUNNY 70 65 84 E5 30.11R $$ ABBREVIATIONS USED IN REMARKS TC - TEMPERATURE IN CELSIUS WCI - WIND CHILL INDEX HX - HEAT INDEX VSB - VISIBILITY
Office: EAX ASUS43 KEAX 171310 RWREAX WEATHER ROUNDUP FOR EASTERN KANSAS AND NORTHWEST MISSOURI NATIONAL WEATHER SERVICE KANSAS CITY/PLEASANT HILL MO 800 AM CDT TUE JUL 17 2018 KSZ040-057-103>105-MOZ028-029-037-043-171400- ...KANSAS CITY METROPOLITAN AREA... CITY SKY/WX TMP DP RH WIND PRES REMARKS K.C. INTL CLOUDY 76 63 64 E10 30.06R K.C. DOWNTOWN CLOUDY 78 64 61 E8 30.04S LEES SUMMIT CLOUDY 75 68 78 E9 30.06R OLATHE - IXD PTSUNNY 77 71 82 E8 30.06R OLATHE - OJC CLOUDY 75 70 84 E5 30.06R LAWRENCE CLOUDY 76 71 85 E3 30.05R $$ MOZ001>008-011>017-020>025-030>033-038>040-044>046-053-054-171400- ...NORTHERN AND CENTRAL MISSOURI... CITY SKY/WX TMP DP RH WIND PRES REMARKS ST. JOSEPH N/A 74 64 71 E5 30.06R MOSBY CLOUDY 73 63 68 E3 30.07R WARRENSBURG MOSUNNY 73 68 83 E6 30.05S WHITEMAN AFB PTSUNNY 76 68 78 E5 30.02S CLINTON NOT AVBL SEDALIA MOSUNNY 77 68 73 E7 30.06F WARSAW NOT AVBL CHILLICOTHE N/A 74 62 66 E3 30.09R KIRKSVILLE MOSUNNY 71 64 78 NE5 30.10R $$ MOZ041-047>049-056>058-063>065-088>090-097-171400- ...EASTERN AND SOUTHERN MISSOURI... CITY SKY/WX TMP DP RH WIND PRES REMARKS ST. LOUIS INTL MOSUNNY 78 66 66 NE5 30.06R SPIRIT OF STL SUNNY 78 69 73 VRB3 30.05R COLUMBIA SUNNY 76 65 68 E7 30.07S JEFFERSON CITY MOSUNNY 76 67 73 E3 30.06S ROLLA CLOUDY 77 69 76 E7 30.08S OSAGE BEACH CLOUDY 78 72 81 E3 30.07S SPRINGFIELD SUNNY 77 71 82 NE3 30.06S BRANSON PTSUNNY 73 72 94 CALM 30.08S JOPLIN MOSUNNY 77 73 87 CALM 30.05S WEST PLAINS SUNNY 78 72 81 NE5 30.08R $$ IAZ060-094-KSZ022-034>040-054-083-096-NEZ052-066-093-171400- ...KANSAS...SOUTHEAST NEBRASKA AND IOWA... CITY SKY/WX TMP DP RH WIND PRES REMARKS TOPEKA CLOUDY 75 71 87 NE3 30.04R MANHATTAN CLOUDY 77 73 87 CALM 30.05R EMPORIA CLOUDY 74 72 93 S3 30.04R CHANUTE SUNNY 77 74 90 E6 30.05R WICHITA TSTM 76 72 87 N7 30.06R OMAHA CLOUDY 73 62 68 SE8 30.08R LINCOLN LGT RAIN 74 63 68 SE7 30.06F FALLS CITY CLOUDY 71 65 81 E5 30.06S LAMONI CLOUDY 70 62 76 E3 30.10R DES MOINES CLOUDY 71 60 68 E3 30.09R $$